Content
SEND FEEDBACK

Daily
Averages
Monthly
Summary
United States of America

UTE DAM, NEW MEXICO


Home > North America > United States > New Mexico
Elevation: 3777 feet     Latitude: 35 21N     Longitude: 103 27W

WEATHER
 
SELECT A DAY
Number of Records: 149,464;   Date Range: 1/2/95 - 9/18/14
 
SHARE

PRINT THIS DATA

[ ← Previous Day ]
WEATHER ALMANAC - JANUARY 31, 2013
[ Next Day → ]
[ °C ]   °F
Weather ElementAverageHighLow
Temperature43.7 °F61 °F (2:53 pm)30 °F (5:53 am)
Dewpoint17.8 °F23 °F (7:53 pm)9 °F (1:53 pm)
Humidity40.5 %66 % (5:53 am)13 % (1:53 pm)
Barometer30.09 in30.17 in (6:53 pm)30.00 in (3:53 am)
Wind Speed8.2 mph17.3 mph (3:53 am)
Weather ElementAverage
Visibility10 mi
Wind DirectionSSW (210.5 °)

Weather ElementTotal
Precipitation---
Heating Degree Days19.5 (Base 65)
Averaged from 22 records on January 31, 2013
WEATHER CONDITIONS BREAKOUT
WIND DIRECTION BREAKOUT
WEATHER BY HOUR - JANUARY 31, 2013
[ °C ]   °F
Local TimeTemperatureDewpointHumidityBarometerVisibilityWind DirectionWind SpeedGust SpeedPrecipitationEventsConditions
1:53 AM35.1 °F19.9 °F54 %30.01 in10.0 miWest (280°)16.1 mphClear
2:53 AM33.1 °F19.9 °F59 %30.01 in10.0 miWest (270°)13.8 mphClear
3:53 AM34.0 °F19.9 °F56 %30.00 in10.0 miWNW (290°)17.3 mphClear
4:53 AM33.1 °F21.0 °F61 %30.03 in10.0 miWest (280°)13.8 mphClear
5:53 AM30.0 °F19.9 °F66 %30.06 in10.0 miSW (230°)4.6 mphClear
6:53 AM32.0 °F19.9 °F61 %30.08 in10.0 miWest (270°)12.7 mphClear
7:53 AM35.1 °F21.0 °F57 %30.10 in10.0 miWest (270°)9.2 mphClear
8:53 AM41.0 °F21.9 °F47 %30.12 in10.0 miWest (270°)9.2 mphClear
9:53 AM48.0 °F19.9 °F33 %30.09 in10.0 miWest (270°)8.1 mphClear
10:53 AM52.0 °F19.9 °F28 %30.10 in10.0 miWSW (250°)6.9 mphClear
11:53 AM55.9 °F15.1 °F20 %30.08 in10.0 miWNW (300°)10.4 mphClear
12:53 PM57.0 °F12.0 °F17 %30.07 in10.0 miWest (270°)8.1 mphClear
1:53 PM60.1 °F9.0 °F13 %30.05 in10.0 miVariable3.5 mphClear
2:53 PM61.0 °F9.0 °F13 %30.07 in10.0 miCalmClear
3:53 PM59.0 °F10.9 °F15 %30.10 in10.0 miSSE (160°)8.1 mphClear
4:53 PM55.0 °F15.1 °F21 %30.11 in10.0 miSouth (180°)6.9 mphClear
5:53 PM48.0 °F16.0 °F28 %30.15 in10.0 miSSE (160°)5.8 mphClear
6:53 PM42.1 °F21.0 °F43 %30.17 in10.0 miSW (220°)4.6 mphClear
7:53 PM39.0 °F23.0 °F53 %30.17 in10.0 miSSW (200°)6.9 mphClear
8:53 PM39.9 °F19.9 °F45 %30.15 in10.0 miESE (110°)4.6 mphClear
9:53 PM35.1 °F19.9 °F54 %30.17 in10.0 miSE (130°)4.6 mphClear
10:53 PM36.0 °F18.0 °F48 %30.16 in10.0 miSW (220°)5.8 mphClear
Hourly data recorded from KTCC, located miles away from Ute Dam, New Mexico







STORIES FROM OUR PARTNERS